Temp
5 5 4 4 4 3 3 3 3 4 4 3 3 3 2 1 0 -0 1 4 5 5 5 5 5 5 5 4 5 5 5 5 5 5 6 5 5 5 5 6 6 6 6 7 7 7 7 8 8 8 9 9 10 10 11 11 11 11 11 11 11 11 11 11 10 10 10 10 10 10 10 10 9 9
5 4 4 3 3 3 3 3 4 4 4 3 3 3 2 2 1 -1 -2 0 2 2 3 5 4 4 4 4 3 3 4 4 4 5 5 5 5 5 4 5 5 5 5 6 6 6 7 7 8 8 8 9 9 10 10 11 11 10 10 11 11 11 11 11 11 10 10 10 10 10 10 10 10 11
4 4 3 3 3 3 3 3 3 4 3 3 3 3 2 1 1 0 -2 -2 0 0 0 2 3 3 3 3 3 3 3 2 3 4 5 5 4 4 4 4 5 5 5 5 5 6 6 7 7 8 8 8 9 9 10 10 11 11 10 10 11 11 11 11 11 10 10 10 10 10 10 10 11 11
4 3 3 3 3 3 3 3 3 3 3 3 3 2 2 1 1 1 -1 -2 -1 -0 -1 -1 1 1 1 2 2 2 2 2 2 2 3 3 4 4 4 4 4 4 5 4 5 5 6 6 7 7 8 8 8 9 9 10 10 11 10 10 10 11 11 11 11 11 10 10 10 10 10 10 11 12
3 3 3 3 3 3 3 3 3 3 2 2 2 2 1 1 1 1 -0 -2 -2 -0 -1 -1 -1 -0 -0 0 1 1 1 1 1 1 1 1 2 3 4 4 4 4 4 4 4 5 5 6 6 7 7 8 8 8 9 9 10 10 10 10 10 10 11 11 11 11 10 10 10 10 10 10 11 12
2 2 2 3 3 2 2 2 2 2 2 2 1 1 1 1 1 0 -0 -1 -2 -1 -1 -1 -1 -1 -1 -1 -1 -1 -1 -0 0 0 -0 0 0 1 2 3 4 4 4 4 4 4 4 5 5 6 7 7 8 8 8 9 9 10 10 10 10 10 10 11 11 10 10 10 10 10 10 10 10 12
3 3 2 2 2 1 2 2 2 2 2 1 1 1 1 0 0 -0 -1 -1 -2 -2 -1 -1 -1 -1 -1 -1 -1 -1 -1 -1 -1 -0 -0 -0 -0 0 1 2 3 4 4 4 4 4 4 4 5 5 6 7 7 8 8 9 9 9 10 10 10 10 10 10 10 10 10 10 10 10 10 9 10 11
2 2 2 2 1 1 1 1 2 1 1 1 0 0 0 -0 -0 -0 -1 -1 -1 -1 -1 -1 -1 -1 -1 -1 -1 -1 -1 -1 -1 -1 -1 -0 -0 -0 0 1 2 3 3 3 4 4 4 4 4 5 6 7 7 8 8 8 9 9 9 10 10 10 10 10 10 10 10 10 10 10 9 9 9 10
2 2 1 1 1 1 1 1 1 1 1 1 0 -0 -0 -0 -1 -1 -1 -1 -1 -1 -1 -1 -1 -1 -1 -1 -1 -1 -1 -2 -1 -1 -1 -1 -1 -0 0 1 2 2 3 3 3 4 4 4 4 4 5 6 6 7 8 8 8 9 9 10 10 10 10 9 10 10 10 10 10 10 10 10 10 10
1 1 1 1 1 1 1 1 1 1 1 0 0 -0 -0 -1 -1 -1 -1 -1 -1 -1 -1 -1 -1 -1 -1 -1 -1 -1 -1 -2 -2 -2 -2 -2 -1 -1 -1 -0 1 1 1 2 3 3 3 4 4 4 4 5 6 7 7 8 8 8 9 9 10 10 10 10 9 10 10 10 10 10 10 9 10 10
1 1 1 1 1 0 0 0 0 0 0 0 -0 -0 -0 -1 -1 -1 -1 -0 -0 -1 -1 -1 -1 -1 -1 -1 -1 -1 -1 -2 -2 -2 -2 -2 -2 -2 -2 -2 -1 0 0 1 2 2 3 3 4 4 4 4 5 6 7 7 8 8 8 9 9 10 10 10 9 9 10 10 9 10 10 10 10 10
1 1 1 1 1 0 0 0 0 0 -0 -0 -0 -0 -0 -0 -1 -1 -1 -0 -0 -0 -1 -1 -1 -1 -1 -1 -1 -1 -2 -2 -2 -2 -2 -3 -3 -2 -2 -2 -2 -1 -1 -0 1 1 2 2 3 3 3 4 4 5 6 7 8 8 8 8 9 9 10 10 10 9 9 9 9 9 10 10 10 10
1 1 1 1 0 0 0 0 0 0 -0 -0 -0 -0 -0 -0 -0 -0 -0 -0 -0 -0 -0 -0 -1 -1 -1 -1 -1 -1 -2 -2 -2 -2 -3 -3 -3 -3 -3 -2 -3 -3 -2 -2 -1 0 1 1 2 3 3 4 4 5 5 6 7 8 7 8 9 9 10 10 10 10 9 9 9 9 10 10 10 9
1 1 1 1 0 0 0 0 0 0 -0 -0 -0 -0 -0 -0 -0 -0 -0 -0 -0 -0 -1 -1 -1 -1 -1 -1 -1 -2 -2 -2 -2 -3 -3 -3 -3 -3 -3 -3 -3 -3 -3 -3 -2 -1 -0 -1 0 2 3 3 4 4 5 6 7 7 7 7 8 9 9 10 10 10 9 9 9 9 9 9 9 9
1 1 1 1 0 0 0 0 -0 -0 -0 -0 -0 -0 -0 -0 -0 -0 -0 -0 -0 -0 -1 -1 -1 -1 -1 -1 -1 -2 -2 -2 -2 -3 -3 -3 -3 -3 -3 -3 -3 -3 -3 -3 -3 -1 -1 -2 -1 1 2 3 3 4 4 6 6 7 7 7 8 8 9 9 10 10 9 9 9 9 9 9 9 9
1 1 1 0 0 0 0 -0 -0 -0 -0 -0 -0 -0 0 0 -0 -0 -0 -0 -0 -1 -1 -1 -1 -1 -1 -1 -1 -2 -2 -2 -3 -3 -3 -3 -3 -3 -3 -3 -3 -3 -3 -3 -3 -2 -1 -2 -2 -0 1 2 3 3 4 5 6 7 7 7 7 8 8 9 9 10 9 8 9 9 8 9 9 9
1 1 0 0 0 0 0 -0 -0 -0 -0 0 0 0 0 -0 -0 -0 -0 -0 -1 -1 -1 -1 -1 -1 -1 -2 -2 -2 -2 -2 -3 -3 -3 -3 -3 -3 -3 -3 -3 -3 -3 -3 -3 -3 -1 -2 -3 -1 1 2 2 3 3 4 5 6 7 7 7 8 8 8 9 9 9 9 8 9 8 8 9 9
1 1 0 0 0 0 0 0 0 0 0 0 0 0 -0 -0 -0 -0 -0 -0 -1 -1 -1 -1 -1 -1 -1 -2 -2 -2 -2 -3 -3 -3 -3 -3 -3 -3 -3 -4 -4 -3 -3 -3 -3 -3 -2 -2 -3 -1 1 1 2 2 3 4 5 6 7 7 7 7 8 8 8 9 9 9 9 8 8 8 9 9
1 1 1 0 0 0 0 0 0 0 0 0 0 0 -0 -0 -0 -0 -0 -0 -0 -0 -1 -1 -1 -1 -1 -1 -2 -2 -2 -2 -3 -3 -3 -3 -3 -3 -3 -4 -4 -3 -3 -4 -3 -3 -2 -2 -3 -1 0 1 1 2 2 3 4 5 6 7 7 7 8 8 8 9 9 9 9 9 8 9 9 9
1 1 1 0 0 0 0 0 0 0 0 -0 -0 -0 -0 -0 -1 -1 -0 -0 -0 -0 -0 -0 -0 -0 -1 -1 -1 -1 -2 -2 -3 -3 -3 -3 -3 -3 -3 -4 -4 -4 -4 -4 -4 -4 -3 -2 -3 -2 -0 -0 -0 1 2 3 4 5 6 7 7 7 8 8 8 9 9 10 10 9 9 8 9 9
1 1 1 0 0 0 0 0 0 0 0 -0 -0 -0 -0 -1 -1 -1 -0 0 0 0 -0 -0 -0 -0 -0 -1 -1 -1 -2 -2 -3 -3 -3 -3 -3 -3 -4 -4 -4 -4 -4 -4 -4 -4 -3 -2 -2 -2 -1 -1 -1 0 2 3 4 5 6 7 7 7 8 8 8 9 9 9 10 10 9 8 9 9
1 1 1 0 0 1 0 0 0 0 0 -0 -0 -0 -0 -1 -1 -1 -1 0 0 -0 -0 -0 0 0 -0 -1 -1 -1 -2 -2 -3 -3 -3 -3 -3 -4 -4 -4 -4 -4 -4 -4 -4 -4 -3 -2 -3 -3 -2 -1 -1 0 2 3 4 4 5 6 7 8 8 8 9 9 9 9 10 10 10 9 8 8
1 1 1 1 1 1 1 0 0 0 0 -0 -0 -0 -1 -1 -1 -1 -1 -0 -0 -0 -1 -0 -0 -0 -0 -1 -1 -2 -2 -2 -3 -3 -3 -3 -4 -4 -4 -4 -4 -4 -4 -4 -4 -4 -3 -3 -3 -2 -2 -2 -0 1 2 3 3 4 5 6 7 8 8 9 9 9 9 10 10 10 10 9 8 7
1 1 1 1 1 1 1 0 0 0 0 -0 -0 -0 -1 -1 -1 -1 -0 0 -0 -0 -1 -0 -0 -0 -1 -1 -1 -2 -2 -2 -3 -3 -3 -4 -4 -4 -4 -4 -4 -5 -4 -4 -4 -4 -3 -3 -2 -2 -2 -2 -0 2 3 3 3 4 5 6 7 8 9 9 9 9 9 10 10 10 10 10 9 7
2 1 1 1 1 1 1 0 0 0 0 -0 -0 -0 -1 -1 -1 -0 0 0 0 -0 -1 -1 -0 -1 -1 -1 -2 -2 -2 -3 -3 -3 -3 -4 -4 -4 -4 -4 -4 -5 -4 -3 -4 -4 -3 -3 -3 -2 -2 -2 -1 1 3 4 4 5 6 7 8 9 9 9 9 9 9 9 10 10 9 9 8 7
2 1 1 1 1 1 0 0 0 0 0 0 -0 -0 -0 -0 0 0 0 0 -0 -0 -1 -1 -1 -1 -1 -1 -2 -2 -2 -3 -3 -3 -4 -4 -4 -4 -4 -4 -4 -4 -4 -3 -3 -3 -3 -3 -3 -2 -1 -1 -1 0 2 5 6 5 6 7 8 9 9 9 9 9 9 9 9 9 9 8 8 7
1 1 1 1 1 1 1 1 0 1 1 0 0 0 0 0 1 1 1 0 -0 -1 -1 -1 -1 -1 -1 -2 -2 -2 -2 -2 -3 -3 -4 -4 -4 -4 -4 -4 -4 -4 -3 -3 -3 -3 -3 -2 -2 -1 -1 -0 -0 0 2 4 6 5 6 7 8 9 9 9 9 9 9 9 9 9 9 8 7 7
1 1 1 1 1 1 1 1 1 1 1 0 0 0 1 1 1 1 1 -0 -1 -1 -1 -1 -1 -1 -1 -2 -2 -2 -2 -2 -3 -3 -4 -4 -4 -4 -4 -4 -4 -3 -3 -2 -2 -2 -2 -2 -1 -0 0 -0 0 1 2 4 5 5 6 7 7 8 8 8 8 9 9 9 9 8 8 7 7 6
1 1 1 1 1 1 1 1 1 1 1 1 1 1 1 1 1 1 0 -0 -1 -1 -1 -1 -1 -1 -1 -1 -2 -2 -2 -2 -3 -3 -3 -4 -4 -4 -4 -3 -3 -3 -3 -2 -2 -2 -2 -1 0 1 1 1 1 2 2 3 4 5 5 5 6 7 8 8 8 8 8 8 8 8 8 7 6 6
1 1 1 1 1 1 1 0 1 1 1 1 1 1 1 1 1 1 0 -0 -1 -1 -1 -1 -1 -1 -1 -1 -1 -1 -2 -2 -3 -3 -3 -4 -4 -3 -4 -3 -3 -3 -2 -1 -1 -2 -2 -1 1 2 2 1 1 2 2 3 4 5 5 6 6 7 8 8 8 8 8 8 8 8 8 7 6 6
1 1 1 1 1 1 1 1 1 1 1 1 1 1 1 1 1 1 0 -0 -1 -1 -1 -1 -1 -1 -1 -1 -1 -1 -1 -2 -2 -3 -3 -4 -4 -4 -4 -4 -3 -3 -2 -1 -1 -2 -2 -1 1 2 2 1 1 2 2 3 4 5 6 7 7 7 8 8 8 8 8 8 8 8 8 7 6 6
1 1 1 1 1 1 1 1 1 1 1 1 1 1 1 1 1 1 1 0 -1 -1 -1 -1 -1 -1 -1 -1 -1 -1 -1 -2 -2 -2 -3 -3 -4 -4 -4 -4 -4 -3 -2 -1 -1 -2 -2 -1 0 1 2 2 2 3 3 4 5 6 6 6 7 7 7 7 7 7 7 7 7 7 7 7 7 6
1 1 1 1 1 1 1 1 1 1 1 1 1 1 1 1 1 1 1 1 -0 -1 -1 -1 -1 -1 -1 -1 -1 -1 -1 -1 -2 -2 -2 -3 -3 -4 -4 -4 -4 -4 -3 -3 -2 -1 -1 -1 -0 1 1 2 3 4 5 5 5 6 5 5 6 6 6 7 7 7 7 7 7 7 7 7 7 7
1 1 1 1 1 1 1 1 1 1 1 1 1 1 1 1 1 1 1 1 -0 -1 -1 -1 -1 -1 -1 -1 -1 -1 -1 -1 -1 -2 -2 -2 -3 -3 -4 -4 -4 -4 -3 -3 -2 -1 -1 -0 -0 0 1 2 3 4 5 4 5 5 5 5 5 6 6 6 6 6 6 6 6 6 6 6 6 6
2 1 1 1 1 1 1 1 1 1 1 0 0 0 1 1 1 1 1 1 0 -0 -0 -1 -1 -1 -1 -1 -1 -1 -1 -1 -1 -1 -2 -2 -2 -3 -3 -4 -4 -4 -3 -3 -2 -2 -1 1 1 2 2 3 4 4 4 4 4 4 5 5 5 5 5 5 5 5 5 5 5 5 5 5 5 5
2 2 1 1 1 1 1 1 1 1 1 1 0 -0 0 0 0 0 1 1 1 0 -0 -1 -1 -1 -1 -1 -1 -1 -1 -1 -1 -1 -1 -2 -2 -2 -3 -3 -4 -4 -4 -3 -3 -3 -2 -0 1 2 2 3 3 2 1 2 2 3 4 4 4 4 4 4 4 4 4 4 4 4 4 4 4 4
2 2 1 1 1 1 1 1 1 1 1 1 0 -0 -0 -0 -0 0 0 1 1 1 0 -0 -1 -1 -1 -1 -1 -1 -1 -1 -1 -1 -1 -2 -2 -2 -2 -2 -3 -3 -4 -4 -4 -3 -3 -2 -1 0 0 0 -0 -1 -1 0 1 2 2 3 3 3 3 4 4 4 4 4 4 3 4 4 3 3
2 2 2 1 1 1 1 1 1 1 1 1 1 0 -0 -0 -0 -0 0 0 1 1 0 -0 -1 -1 -1 -1 -1 -1 -1 -1 -1 -1 -2 -2 -2 -2 -2 -2 -2 -3 -3 -3 -4 -3 -3 -3 -2 -1 -2 -2 -3 -3 -3 -1 -0 -0 1 2 2 2 3 3 3 3 3 3 3 3 3 3 3 3
2 2 2 2 1 1 1 1 1 1 1 1 1 0 -0 -0 -1 -0 -0 0 0 0 0 0 -0 -1 -1 -1 -1 -1 -1 -1 -1 -1 -2 -2 -2 -2 -2 -2 -2 -2 -2 -3 -3 -3 -3 -3 -3 -3 -3 -3 -4 -4 -4 -3 -3 -2 -0 1 1 2 2 2 2 2 2 2 3 3 2 2 2 2
2 2 2 2 2 2 2 2 1 1 1 1 1 1 0 -0 -1 -1 -0 -0 0 0 0 0 -0 -0 -1 -1 -1 -1 -1 -1 -1 -1 -1 -2 -2 -1 -1 -2 -2 -2 -2 -2 -2 -3 -3 -3 -3 -3 -3 -3 -3 -3 -3 -3 -3 -2 -1 -1 -1 0 1 1 1 1 1 1 2 2 2 1 1 1
2 2 2 2 2 2 2 2 1 1 1 1 1 1 0 -0 -0 -1 -1 -0 -0 0 0 0 0 -0 -1 -1 -1 -1 -1 -1 -1 -1 -1 -1 -1 -1 -1 -1 -1 -1 -2 -2 -2 -2 -3 -2 -2 -2 -2 -2 -1 -1 -1 -2 -2 -3 -3 -3 -2 -1 -0 0 1 1 0 0 1 2 1 1 1 1
2 2 2 2 2 2 2 2 2 1 1 1 1 1 1 0 0 -0 -1 -1 -0 0 0 0 0 0 -0 -1 -1 -1 -1 -1 -1 -1 -1 -1 -1 -1 -1 -1 -1 -1 -2 -2 -2 -2 -2 -1 -1 -0 -0 -0 -0 -1 -1 -2 -2 -2 -2 -2 -2 -2 -1 -1 -0 -0 -0 -0 1 1 0 0 0 0
3 2 2 2 2 2 2 2 2 2 2 2 2 2 2 1 1 0 -0 -0 -0 -0 0 0 0 0 -0 -1 -1 -1 -1 -1 -1 -1 -1 -1 -1 -1 -1 -1 -1 -1 -1 -1 -2 -1 -1 -1 -1 -1 -1 -1 -1 -1 -1 -2 -2 -2 -2 -2 -2 -2 -2 -2 -1 -1 -1 -1 -0 0 0 0 1 0
3 3 2 2 2 2 2 2 2 2 2 2 2 2 2 2 1 1 0 -0 -0 -0 -0 0 0 0 0 -0 -1 -1 -1 -1 -1 -1 -1 -1 -1 -1 -1 -1 -1 -1 -1 -1 -1 -1 -1 -1 -1 -1 -1 -1 -1 -1 -1 -2 -2 -2 -1 -1 -1 -1 -1 -1 -1 -1 -1 -1 -1 -0 -0 0 1 0
3 3 3 3 2 2 2 2 2 2 2 2 2 2 2 2 2 1 1 0 -0 -0 -0 0 0 0 0 0 -0 -1 -1 -1 -1 -1 -1 -0 -1 -1 -1 -1 -1 -1 -1 -1 -1 -1 -1 -1 -1 -1 -1 -2 -2 -2 -2 -2 -2 -2 -1 -1 -1 -1 -1 -1 -1 -1 -1 -2 -1 -0 -0 -0 -0 -0
Height
1548 1548 1547 1546 1545 1544 1543 1542 1540 1538 1537 1535 1532 1529 1527 1524 1521 1518 1516 1513 1511 1509 1507 1503 1500 1499 1497 1494 1492 1490 1488 1485 1482 1479 1477 1475 1472 1471 1469 1468 1466 1464 1463 1462 1460 1458 1458 1459 1459 1458 1458 1458 1459 1459 1460 1460 1462 1464 1466 1469 1471 1474 1476 1479 1481 1483 1485 1488 1490 1492 1494 1496 1497 1500
1549 1548 1547 1546 1546 1545 1543 1542 1540 1538 1536 1534 1532 1530 1527 1525 1523 1520 1517 1515 1512 1509 1507 1504 1500 1496 1495 1492 1489 1487 1485 1483 1480 1477 1475 1472 1470 1468 1466 1465 1464 1461 1459 1458 1456 1455 1455 1455 1455 1454 1453 1454 1454 1455 1455 1456 1456 1457 1460 1463 1465 1467 1471 1474 1477 1479 1481 1484 1486 1488 1490 1492 1494 1496
1550 1549 1548 1547 1545 1544 1543 1541 1540 1538 1535 1534 1532 1530 1527 1525 1523 1520 1517 1515 1512 1509 1506 1503 1500 1496 1493 1491 1488 1484 1482 1480 1478 1475 1472 1470 1468 1465 1463 1462 1460 1459 1457 1455 1453 1452 1452 1451 1451 1450 1449 1449 1450 1450 1451 1451 1451 1452 1453 1455 1458 1460 1464 1469 1473 1475 1478 1480 1483 1485 1487 1489 1491 1493
1550 1549 1547 1546 1545 1544 1543 1541 1539 1537 1535 1533 1531 1529 1527 1525 1522 1520 1517 1514 1511 1509 1506 1503 1500 1496 1492 1490 1486 1482 1479 1477 1475 1472 1470 1467 1465 1462 1460 1458 1457 1456 1454 1452 1450 1449 1448 1447 1446 1446 1445 1445 1445 1446 1446 1446 1447 1447 1447 1449 1453 1455 1458 1462 1467 1471 1473 1476 1478 1481 1483 1485 1487 1490
1549 1548 1547 1546 1545 1543 1542 1540 1538 1536 1534 1532 1531 1528 1526 1524 1522 1519 1517 1513 1509 1507 1505 1502 1499 1496 1492 1488 1485 1481 1477 1474 1471 1469 1467 1464 1462 1459 1456 1454 1453 1452 1450 1448 1446 1445 1444 1443 1442 1442 1442 1441 1441 1442 1442 1442 1442 1442 1443 1445 1448 1451 1453 1457 1461 1465 1469 1472 1474 1477 1480 1482 1484 1487
1549 1548 1547 1546 1544 1543 1541 1540 1538 1536 1534 1532 1530 1528 1526 1524 1522 1519 1516 1513 1508 1504 1502 1500 1497 1494 1491 1487 1484 1481 1476 1472 1469 1465 1463 1461 1458 1456 1453 1450 1449 1448 1446 1444 1443 1441 1439 1438 1438 1437 1437 1437 1437 1437 1437 1437 1437 1438 1439 1440 1442 1446 1449 1453 1456 1460 1464 1467 1471 1473 1475 1478 1481 1483
1549 1548 1546 1545 1544 1542 1541 1539 1537 1535 1533 1532 1529 1527 1525 1523 1521 1519 1516 1513 1509 1504 1500 1498 1495 1492 1489 1486 1483 1480 1476 1472 1468 1463 1460 1457 1454 1452 1449 1447 1444 1443 1442 1440 1438 1437 1435 1434 1433 1432 1432 1432 1432 1432 1432 1432 1433 1434 1435 1436 1437 1440 1444 1447 1450 1454 1459 1462 1466 1469 1471 1474 1477 1479
1548 1547 1546 1545 1544 1542 1541 1539 1537 1535 1533 1531 1529 1527 1525 1523 1520 1518 1516 1513 1509 1504 1499 1497 1494 1491 1487 1484 1481 1478 1474 1470 1467 1462 1458 1453 1450 1448 1446 1443 1440 1438 1437 1435 1433 1432 1430 1429 1428 1427 1427 1426 1426 1426 1426 1427 1428 1429 1430 1432 1433 1435 1438 1440 1443 1447 1452 1457 1460 1464 1467 1470 1474 1476
1548 1547 1546 1545 1543 1542 1540 1539 1537 1535 1533 1530 1528 1526 1524 1522 1519 1517 1514 1512 1508 1504 1499 1495 1492 1489 1486 1482 1479 1476 1471 1467 1463 1460 1456 1451 1447 1443 1440 1438 1436 1433 1431 1430 1428 1426 1424 1424 1423 1422 1422 1421 1421 1421 1421 1422 1423 1424 1425 1427 1429 1430 1431 1434 1437 1441 1447 1451 1454 1458 1462 1466 1469 1472
1548 1547 1546 1545 1543 1542 1540 1538 1536 1534 1532 1530 1528 1525 1523 1521 1518 1515 1513 1510 1507 1503 1499 1494 1490 1487 1484 1479 1476 1473 1470 1465 1460 1456 1452 1448 1444 1439 1435 1432 1430 1428 1426 1424 1423 1421 1419 1418 1417 1416 1416 1416 1416 1416 1417 1418 1418 1419 1420 1421 1424 1425 1426 1427 1431 1436 1441 1445 1449 1452 1457 1460 1464 1468
1548 1548 1546 1545 1543 1542 1540 1538 1536 1533 1531 1529 1527 1525 1522 1520 1517 1514 1511 1508 1505 1501 1497 1493 1489 1485 1482 1478 1473 1470 1467 1463 1459 1454 1448 1443 1440 1436 1431 1427 1424 1422 1420 1418 1417 1416 1414 1412 1411 1411 1410 1411 1411 1411 1411 1412 1413 1414 1416 1417 1419 1421 1421 1422 1425 1430 1435 1439 1443 1447 1451 1455 1459 1463
1548 1547 1546 1545 1543 1541 1540 1538 1535 1533 1531 1529 1527 1524 1522 1519 1516 1513 1510 1506 1503 1499 1495 1491 1487 1483 1479 1476 1471 1467 1464 1459 1455 1453 1447 1440 1436 1432 1428 1424 1421 1418 1414 1412 1410 1409 1408 1406 1405 1405 1404 1405 1406 1405 1405 1406 1407 1409 1411 1412 1413 1415 1417 1418 1421 1424 1428 1432 1437 1442 1445 1449 1453 1457
1548 1547 1546 1544 1543 1541 1540 1538 1535 1533 1531 1529 1526 1524 1521 1519 1515 1512 1509 1505 1501 1498 1494 1490 1486 1481 1477 1473 1469 1465 1461 1458 1453 1449 1445 1439 1433 1429 1423 1419 1419 1417 1411 1407 1404 1402 1402 1401 1399 1398 1398 1399 1400 1400 1399 1400 1402 1404 1406 1406 1407 1409 1411 1413 1416 1418 1422 1426 1431 1436 1440 1445 1449 1452
1548 1547 1546 1544 1543 1541 1540 1538 1535 1533 1531 1529 1527 1524 1521 1518 1515 1511 1508 1504 1500 1496 1492 1488 1484 1479 1475 1472 1468 1463 1460 1457 1451 1447 1442 1436 1430 1426 1418 1411 1411 1413 1410 1404 1398 1395 1396 1396 1393 1391 1391 1392 1393 1393 1393 1394 1396 1398 1400 1401 1402 1404 1406 1408 1410 1412 1416 1421 1426 1431 1435 1440 1444 1448
1548 1547 1546 1544 1543 1541 1539 1537 1535 1533 1531 1529 1527 1524 1522 1519 1515 1511 1507 1503 1500 1496 1492 1488 1484 1479 1473 1470 1467 1463 1457 1453 1449 1445 1440 1434 1428 1423 1417 1408 1404 1406 1407 1403 1394 1388 1389 1391 1388 1385 1385 1386 1387 1387 1387 1389 1391 1392 1394 1396 1397 1399 1401 1403 1405 1407 1411 1416 1420 1425 1429 1434 1440 1444
1547 1546 1545 1544 1542 1541 1539 1536 1534 1532 1530 1528 1525 1523 1521 1518 1515 1512 1508 1504 1500 1496 1491 1487 1483 1478 1473 1469 1465 1461 1456 1450 1445 1441 1436 1432 1426 1420 1416 1409 1402 1401 1403 1400 1392 1383 1382 1385 1384 1379 1379 1380 1380 1381 1381 1383 1385 1386 1389 1391 1392 1394 1396 1398 1401 1402 1405 1410 1414 1419 1423 1428 1434 1439
1547 1546 1545 1543 1542 1540 1538 1536 1534 1531 1529 1526 1524 1522 1519 1516 1514 1511 1508 1505 1501 1496 1492 1486 1482 1478 1473 1468 1464 1460 1455 1448 1442 1436 1431 1427 1423 1417 1412 1407 1400 1398 1398 1395 1390 1381 1376 1380 1380 1374 1373 1375 1375 1375 1376 1376 1378 1380 1382 1385 1387 1389 1391 1393 1396 1398 1400 1404 1409 1413 1417 1422 1427 1433
1546 1545 1544 1542 1541 1539 1537 1535 1533 1530 1527 1525 1522 1520 1517 1514 1512 1509 1505 1502 1499 1495 1491 1486 1481 1477 1473 1468 1462 1458 1454 1447 1441 1434 1427 1422 1417 1411 1407 1402 1396 1394 1393 1391 1387 1377 1371 1375 1375 1369 1369 1370 1369 1369 1370 1370 1372 1374 1376 1379 1381 1384 1387 1389 1391 1394 1396 1399 1403 1407 1412 1416 1421 1428
1546 1545 1543 1542 1540 1539 1537 1534 1532 1529 1526 1524 1521 1518 1515 1512 1510 1507 1503 1500 1496 1493 1489 1485 1480 1476 1472 1467 1461 1455 1451 1445 1439 1433 1426 1419 1413 1405 1400 1396 1391 1389 1388 1387 1384 1375 1368 1370 1371 1365 1364 1365 1363 1364 1365 1365 1366 1368 1370 1373 1376 1379 1382 1384 1387 1389 1392 1394 1397 1402 1407 1410 1415 1422
1545 1544 1543 1541 1540 1538 1536 1534 1532 1529 1526 1523 1519 1516 1513 1510 1508 1505 1502 1499 1495 1491 1487 1483 1479 1474 1469 1464 1459 1454 1448 1442 1435 1429 1422 1416 1409 1401 1394 1390 1386 1383 1382 1382 1380 1373 1365 1365 1366 1361 1360 1361 1358 1358 1359 1360 1361 1363 1365 1368 1371 1374 1377 1380 1383 1385 1387 1390 1393 1396 1400 1405 1410 1416
1545 1544 1542 1541 1539 1537 1535 1533 1531 1528 1525 1522 1519 1515 1512 1509 1505 1502 1499 1496 1493 1489 1486 1482 1477 1472 1467 1462 1457 1451 1446 1440 1432 1424 1416 1410 1405 1398 1391 1385 1380 1378 1377 1376 1375 1370 1362 1361 1362 1358 1356 1356 1355 1354 1354 1356 1357 1359 1361 1364 1367 1370 1373 1376 1378 1381 1383 1386 1389 1391 1395 1400 1405 1410
1544 1543 1542 1540 1539 1537 1535 1533 1530 1527 1524 1521 1518 1514 1511 1507 1503 1500 1496 1493 1489 1486 1483 1479 1475 1469 1464 1458 1453 1448 1442 1436 1430 1422 1414 1407 1401 1395 1389 1382 1375 1371 1371 1371 1370 1366 1360 1358 1359 1357 1353 1352 1351 1350 1351 1352 1354 1355 1357 1360 1363 1366 1369 1371 1374 1377 1379 1382 1385 1387 1390 1395 1400 1404
1544 1543 1541 1540 1538 1536 1534 1532 1530 1527 1524 1520 1517 1514 1510 1506 1502 1499 1495 1491 1486 1482 1479 1475 1470 1465 1460 1455 1450 1445 1438 1432 1426 1420 1413 1405 1399 1392 1386 1380 1374 1367 1364 1366 1367 1362 1357 1355 1355 1355 1353 1350 1346 1346 1348 1349 1350 1352 1354 1356 1359 1362 1365 1367 1369 1372 1375 1377 1380 1383 1386 1391 1396 1400
1543 1542 1541 1539 1538 1536 1534 1532 1529 1526 1523 1520 1517 1514 1510 1506 1502 1498 1495 1491 1486 1482 1477 1473 1468 1463 1458 1452 1447 1441 1434 1427 1422 1416 1410 1403 1397 1390 1382 1377 1373 1366 1361 1361 1363 1358 1353 1351 1351 1351 1352 1351 1345 1343 1345 1346 1348 1349 1351 1353 1356 1359 1361 1363 1365 1368 1370 1373 1376 1379 1381 1384 1389 1394
1543 1541 1540 1539 1537 1535 1533 1531 1529 1526 1523 1520 1517 1514 1511 1507 1503 1499 1494 1490 1486 1482 1477 1472 1467 1461 1456 1450 1444 1437 1430 1424 1418 1412 1406 1400 1394 1388 1380 1373 1369 1363 1358 1357 1358 1354 1350 1348 1348 1348 1349 1349 1345 1342 1342 1344 1345 1347 1348 1350 1353 1356 1358 1360 1362 1364 1366 1368 1371 1373 1376 1378 1382 1387
1542 1541 1540 1538 1537 1535 1533 1531 1528 1526 1523 1520 1517 1514 1511 1507 1503 1498 1494 1490 1485 1481 1476 1471 1465 1460 1454 1448 1441 1435 1428 1421 1415 1409 1403 1397 1391 1385 1379 1372 1366 1360 1356 1354 1353 1352 1348 1346 1346 1346 1345 1345 1343 1342 1341 1341 1343 1345 1346 1348 1350 1353 1355 1356 1358 1360 1363 1364 1366 1369 1372 1375 1378 1382
1542 1541 1540 1538 1537 1535 1533 1531 1528 1525 1523 1520 1517 1514 1510 1506 1502 1498 1493 1489 1485 1480 1476 1470 1465 1459 1453 1446 1440 1433 1426 1419 1413 1407 1401 1394 1388 1382 1376 1370 1365 1359 1355 1351 1350 1349 1346 1343 1343 1343 1342 1342 1341 1341 1340 1340 1341 1342 1343 1345 1347 1349 1352 1354 1356 1358 1360 1362 1364 1366 1369 1372 1376 1380
1542 1541 1540 1538 1536 1535 1533 1531 1528 1525 1522 1520 1516 1513 1509 1505 1501 1497 1492 1488 1484 1480 1475 1470 1465 1459 1453 1447 1440 1434 1427 1420 1413 1407 1400 1393 1387 1380 1374 1368 1363 1358 1354 1351 1348 1346 1344 1341 1340 1339 1339 1339 1339 1338 1338 1339 1340 1340 1342 1343 1345 1347 1349 1352 1354 1355 1357 1359 1361 1363 1365 1368 1372 1377
1542 1541 1540 1538 1537 1535 1533 1530 1528 1525 1522 1519 1516 1512 1509 1505 1500 1496 1492 1488 1484 1480 1475 1471 1466 1460 1454 1448 1442 1436 1429 1421 1413 1406 1398 1391 1384 1378 1372 1366 1362 1358 1354 1350 1347 1344 1341 1338 1336 1335 1335 1336 1337 1337 1337 1338 1338 1340 1341 1343 1344 1345 1347 1350 1352 1353 1355 1357 1359 1361 1362 1365 1368 1374
1542 1541 1540 1538 1536 1534 1532 1530 1527 1524 1522 1519 1516 1512 1509 1505 1500 1496 1492 1487 1484 1480 1476 1472 1467 1461 1456 1450 1444 1437 1430 1422 1414 1406 1398 1390 1383 1377 1371 1365 1361 1356 1353 1350 1348 1344 1339 1335 1331 1330 1331 1334 1336 1337 1337 1337 1337 1339 1341 1342 1343 1344 1346 1348 1350 1352 1354 1356 1358 1359 1361 1363 1366 1371
1542 1541 1539 1538 1536 1534 1532 1529 1527 1524 1522 1519 1516 1512 1508 1505 1501 1497 1493 1489 1486 1482 1478 1473 1469 1463 1458 1451 1444 1438 1430 1423 1416 1409 1401 1393 1386 1379 1373 1366 1361 1356 1353 1351 1349 1344 1340 1336 1332 1330 1331 1333 1335 1337 1337 1337 1337 1338 1339 1341 1342 1344 1346 1348 1350 1351 1353 1355 1357 1358 1360 1362 1365 1369
1542 1540 1539 1537 1536 1534 1531 1529 1526 1524 1521 1518 1515 1512 1509 1505 1502 1498 1494 1490 1487 1483 1479 1475 1470 1464 1458 1452 1445 1439 1432 1426 1419 1412 1405 1397 1390 1383 1376 1369 1363 1359 1354 1352 1349 1345 1341 1339 1337 1335 1334 1334 1335 1337 1337 1337 1337 1338 1339 1340 1342 1344 1346 1349 1350 1351 1352 1354 1355 1357 1359 1361 1365 1369
1541 1540 1538 1537 1535 1533 1530 1528 1525 1522 1520 1518 1515 1512 1509 1505 1502 1498 1494 1490 1486 1483 1480 1475 1471 1465 1460 1454 1448 1441 1434 1428 1422 1415 1408 1401 1394 1387 1380 1374 1369 1364 1359 1355 1351 1347 1344 1342 1341 1339 1337 1335 1336 1337 1337 1337 1338 1339 1340 1341 1343 1345 1347 1349 1350 1351 1352 1353 1354 1356 1358 1361 1364 1368
1541 1539 1538 1536 1534 1532 1530 1527 1525 1522 1519 1517 1514 1511 1508 1505 1501 1498 1494 1490 1487 1484 1481 1477 1472 1467 1462 1456 1450 1444 1437 1431 1425 1419 1412 1406 1399 1392 1385 1380 1374 1369 1364 1359 1354 1350 1348 1346 1344 1342 1340 1338 1337 1336 1337 1339 1340 1341 1342 1343 1345 1346 1348 1349 1349 1350 1351 1353 1354 1356 1357 1360 1363 1366
1540 1539 1537 1536 1534 1532 1530 1527 1525 1522 1519 1517 1514 1511 1508 1505 1502 1498 1495 1491 1488 1484 1481 1478 1474 1469 1464 1459 1453 1447 1441 1435 1429 1422 1416 1410 1403 1397 1392 1386 1381 1375 1370 1365 1360 1356 1353 1350 1347 1345 1343 1341 1338 1337 1339 1341 1343 1344 1345 1346 1346 1347 1348 1348 1349 1350 1351 1353 1354 1356 1357 1359 1361 1364
1540 1538 1537 1535 1533 1531 1529 1527 1525 1522 1520 1517 1514 1511 1508 1505 1502 1499 1496 1492 1489 1485 1482 1479 1475 1470 1466 1462 1456 1451 1445 1439 1433 1427 1420 1414 1408 1402 1397 1391 1387 1382 1377 1372 1368 1363 1358 1354 1351 1348 1346 1343 1341 1342 1345 1348 1349 1349 1348 1348 1349 1349 1349 1350 1350 1351 1352 1353 1354 1356 1357 1359 1361 1363
1539 1538 1536 1535 1533 1531 1529 1527 1525 1522 1520 1517 1514 1512 1509 1506 1503 1500 1497 1494 1491 1487 1483 1480 1476 1473 1468 1464 1459 1454 1449 1443 1438 1432 1426 1420 1414 1409 1403 1397 1392 1388 1383 1379 1375 1370 1365 1361 1357 1354 1352 1349 1349 1352 1355 1356 1355 1353 1353 1353 1353 1353 1353 1353 1353 1353 1353 1354 1355 1356 1358 1359 1361 1364
1538 1537 1536 1534 1532 1531 1529 1527 1525 1522 1520 1517 1515 1512 1509 1506 1504 1501 1498 1495 1491 1488 1485 1481 1478 1475 1471 1467 1462 1457 1452 1447 1442 1437 1432 1426 1420 1415 1410 1405 1400 1395 1391 1387 1382 1377 1372 1368 1364 1362 1361 1359 1359 1361 1362 1360 1358 1358 1358 1358 1358 1357 1357 1356 1355 1355 1355 1356 1356 1358 1359 1361 1363 1365
1538 1537 1535 1533 1532 1530 1529 1527 1525 1522 1519 1517 1514 1512 1509 1507 1504 1501 1498 1495 1492 1489 1486 1482 1479 1476 1473 1469 1465 1461 1457 1452 1447 1442 1437 1432 1427 1422 1417 1412 1407 1403 1398 1393 1388 1383 1379 1375 1373 1372 1370 1369 1369 1369 1369 1367 1366 1365 1364 1363 1362 1361 1360 1359 1358 1358 1358 1358 1359 1360 1362 1363 1365 1367
1537 1536 1534 1533 1531 1530 1528 1526 1524 1522 1519 1517 1514 1512 1509 1507 1504 1501 1498 1495 1493 1490 1487 1484 1481 1478 1475 1472 1468 1464 1461 1456 1452 1447 1443 1438 1434 1429 1424 1419 1415 1410 1405 1399 1395 1390 1386 1383 1382 1381 1380 1379 1378 1377 1375 1374 1372 1371 1369 1368 1367 1365 1363 1362 1362 1361 1362 1362 1362 1363 1365 1366 1368 1371
1536 1535 1533 1532 1530 1529 1528 1526 1524 1521 1519 1516 1514 1512 1509 1507 1504 1502 1499 1496 1494 1491 1488 1485 1482 1479 1476 1474 1471 1467 1464 1460 1456 1452 1448 1444 1439 1435 1431 1426 1421 1417 1412 1407 1403 1399 1396 1395 1394 1392 1389 1388 1385 1381 1378 1377 1377 1376 1375 1374 1373 1371 1369 1368 1367 1366 1366 1367 1366 1367 1369 1370 1372 1375
1534 1533 1532 1531 1529 1528 1527 1526 1523 1521 1519 1516 1514 1511 1509 1507 1505 1502 1500 1497 1494 1492 1489 1486 1483 1481 1478 1475 1473 1470 1467 1464 1460 1456 1452 1448 1444 1440 1436 1432 1428 1424 1420 1416 1413 1410 1408 1406 1403 1399 1395 1392 1389 1385 1383 1384 1385 1384 1382 1381 1379 1378 1376 1375 1373 1372 1372 1372 1371 1371 1372 1374 1376 1379
1533 1532 1531 1530 1528 1527 1526 1525 1523 1521 1518 1516 1513 1511 1509 1507 1505 1502 1500 1497 1495 1492 1490 1487 1485 1482 1479 1477 1474 1472 1470 1467 1464 1460 1457 1453 1449 1445 1442 1438 1435 1431 1428 1424 1421 1419 1416 1412 1409 1405 1400 1396 1394 1391 1391 1391 1391 1390 1389 1388 1386 1385 1383 1382 1381 1380 1379 1378 1377 1377 1377 1378 1379 1382
1531 1531 1530 1528 1527 1527 1525 1524 1522 1520 1518 1515 1513 1511 1509 1507 1504 1502 1500 1497 1495 1493 1490 1488 1486 1483 1481 1478 1476 1474 1472 1469 1467 1464 1461 1457 1454 1451 1447 1444 1441 1437 1434 1431 1428 1425 1421 1418 1415 1411 1406 1403 1401 1399 1398 1397 1397 1395 1395 1394 1393 1391 1390 1389 1388 1387 1386 1386 1387 1386 1386 1386 1387 1388
1530 1529 1528 1527 1526 1525 1524 1523 1521 1519 1517 1515 1513 1511 1509 1506 1504 1502 1500 1497 1496 1493 1491 1489 1486 1484 1482 1479 1477 1475 1473 1471 1469 1467 1464 1461 1458 1455 1452 1449 1446 1443 1440 1436 1433 1430 1427 1424 1421 1417 1414 1412 1410 1407 1405 1404 1402 1401 1400 1399 1398 1398 1397 1396 1395 1393 1393 1394 1396 1397 1397 1397 1398 1399
Wind_Speed
8 9 9 9 10 11 10 10 12 13 14 16 18 20 21 22 23 24 26 29 31 30 32 33 33 33 33 33 32 30 27 26 27 27 27 27 27 27 25 23 23 23 21 19 21 24 23 22 22 22 23 22 21 22 21 21 26 37 48 47 43 44 44 43 44 43 39 38 38 38 37 38 38 35
8 9 9 10 10 10 11 11 13 14 15 17 18 20 21 21 22 21 21 24 29 30 31 33 35 36 36 36 36 35 32 30 29 28 28 28 28 29 28 25 24 24 23 22 21 24 24 23 23 24 25 24 23 23 23 23 24 29 41 50 49 45 46 46 45 45 42 39 38 39 40 40 39 36
8 9 10 9 9 11 12 13 14 16 17 19 19 20 22 22 22 23 21 22 26 29 30 33 36 37 37 37 37 37 36 34 33 32 30 30 30 30 30 28 26 25 25 25 23 23 24 25 26 27 28 27 26 24 24 25 27 25 31 45 53 49 46 47 46 47 45 42 40 40 41 41 39 35
9 10 10 10 11 12 14 15 17 18 19 21 21 21 22 22 23 25 24 23 27 29 29 32 35 37 38 39 38 38 38 37 37 37 35 35 34 33 32 31 29 27 26 26 25 24 23 25 28 29 30 30 27 25 25 25 28 28 26 34 48 53 49 47 48 50 48 46 44 42 40 39 37 35
10 11 10 11 13 15 16 18 19 21 21 22 23 22 22 22 23 25 26 25 29 31 31 32 34 36 38 39 39 40 41 42 41 42 41 40 39 37 35 34 32 30 28 28 27 26 25 24 26 29 31 32 29 26 26 25 27 30 28 28 38 49 53 50 50 52 51 49 48 45 42 39 36 35
12 11 11 13 16 18 19 22 23 23 24 24 24 24 23 22 23 24 25 26 29 32 33 33 35 36 37 38 39 40 41 42 43 44 43 43 42 41 40 38 35 32 31 30 28 27 27 25 25 26 30 33 32 29 28 27 26 28 31 31 33 42 52 52 51 54 54 51 50 48 45 41 37 35
14 13 13 16 19 21 22 23 24 25 26 26 25 25 23 22 23 23 24 25 28 31 34 34 36 37 38 38 38 39 39 40 42 43 44 44 43 43 43 41 38 35 33 32 30 29 28 27 25 25 26 31 33 32 31 30 27 26 30 34 33 36 47 53 53 56 56 53 52 51 49 44 39 36
16 15 16 19 21 22 24 24 25 26 27 27 26 25 24 23 24 24 24 25 27 31 34 35 36 37 39 39 39 39 39 40 41 42 44 45 45 45 44 44 42 39 36 34 32 31 30 27 25 24 24 27 31 34 35 33 29 27 29 34 35 34 41 51 55 56 56 55 55 53 51 47 41 38
17 15 17 21 22 24 25 25 26 28 28 27 25 25 25 25 26 25 25 25 27 30 34 36 37 38 39 40 41 40 41 42 43 42 44 45 46 47 47 47 46 44 41 39 36 34 31 28 26 25 24 25 29 33 36 35 32 29 27 31 36 36 37 45 54 57 57 58 58 56 54 50 45 41
16 15 17 21 23 24 26 27 28 29 28 26 24 25 26 27 28 27 26 26 27 30 33 36 38 39 40 41 42 41 41 42 43 44 45 46 46 47 49 50 50 48 47 44 40 36 33 30 27 25 24 24 26 30 34 36 35 31 28 30 35 38 39 40 49 58 60 60 61 59 57 54 50 45
15 15 17 20 22 23 26 28 29 29 28 25 24 25 27 28 30 30 28 27 29 31 34 37 39 40 41 42 42 43 42 42 42 43 46 49 48 47 48 50 52 51 50 48 44 40 36 32 29 27 26 24 24 27 32 37 37 33 30 30 33 38 41 40 43 54 62 63 63 62 59 55 53 49
13 15 16 19 21 22 25 28 29 29 27 25 24 26 28 29 30 31 30 29 31 33 36 38 40 41 42 42 43 44 44 44 44 44 46 49 49 50 50 50 50 51 51 50 48 43 40 37 34 32 31 27 24 26 30 35 39 36 31 30 32 34 39 42 41 47 60 66 64 63 61 58 57 53
13 14 15 18 19 21 24 27 28 27 24 23 25 27 28 29 31 31 31 31 33 35 37 39 41 42 43 43 44 45 44 44 46 47 47 49 50 51 52 51 48 47 47 48 49 47 45 44 40 37 34 29 24 25 29 33 38 38 32 30 32 33 34 39 42 43 54 65 66 64 63 61 59 56
11 12 13 16 17 20 24 27 26 24 21 22 23 25 27 28 30 31 32 32 33 35 38 39 41 42 43 43 43 45 45 45 47 48 48 50 52 51 52 53 50 44 41 45 50 52 50 46 44 41 37 31 26 24 27 31 35 38 35 30 31 34 33 34 39 40 48 62 67 66 66 64 60 58
7 9 12 14 17 21 24 24 22 22 22 22 22 23 25 26 28 30 32 33 34 35 37 39 40 42 43 43 43 44 46 47 48 49 49 49 51 49 49 51 52 46 41 44 50 54 51 46 45 45 40 33 27 24 25 29 33 36 37 32 30 34 36 34 35 37 42 56 67 68 67 66 62 60
4 8 11 14 17 20 21 20 21 22 22 23 24 24 25 25 26 28 29 30 32 33 36 38 39 40 42 43 43 44 47 49 50 50 50 48 48 48 47 47 49 47 44 43 46 52 52 46 44 45 40 33 27 23 22 26 31 34 36 35 31 32 37 36 35 36 38 50 65 69 68 68 65 61
2 6 11 14 15 17 18 19 21 22 23 25 25 25 26 26 28 29 28 26 28 31 34 38 38 38 39 41 42 44 46 49 51 51 51 50 49 48 47 46 47 46 43 41 41 47 50 44 41 43 38 31 26 22 20 22 28 32 34 36 33 32 35 37 38 38 37 43 58 69 70 69 68 64
3 6 11 12 13 15 17 19 21 23 25 26 26 27 27 28 30 31 29 28 29 32 34 36 36 35 35 38 41 44 45 47 49 50 52 52 50 49 47 46 46 44 41 39 38 44 47 41 39 42 36 29 26 22 20 21 24 29 33 35 35 33 35 37 38 40 39 39 49 63 71 72 71 66
6 9 10 11 13 15 18 20 22 23 25 27 28 28 28 29 32 32 30 30 32 34 33 32 32 33 34 37 40 43 46 47 48 48 48 48 48 48 48 46 44 41 39 36 34 40 44 40 39 41 35 30 28 24 21 21 22 26 31 34 35 34 35 38 38 39 41 39 41 53 66 73 73 68
8 9 9 11 14 16 18 21 22 23 25 28 29 29 28 30 33 33 31 31 32 32 30 29 30 32 34 37 40 43 46 47 48 48 47 46 45 46 48 46 43 39 37 33 30 36 43 41 39 39 34 30 30 26 21 21 21 24 28 32 35 35 36 38 39 40 42 42 39 43 56 70 74 71
6 7 9 12 15 16 17 21 23 24 25 27 28 29 30 32 34 35 34 34 33 31 28 28 30 33 36 39 41 44 46 47 48 48 48 47 45 44 46 45 42 38 36 34 30 32 38 37 33 33 31 28 27 24 19 17 17 19 24 29 33 36 35 35 38 40 42 44 42 40 45 61 73 75
3 7 10 12 14 15 16 20 24 26 25 25 27 29 31 33 35 36 37 37 35 32 29 30 32 35 38 40 43 45 47 48 47 47 48 47 44 44 44 43 41 39 36 30 25 26 31 31 29 30 31 30 27 21 15 13 12 14 19 25 31 34 35 34 35 38 41 43 45 43 41 50 66 75
4 7 9 11 13 15 16 19 25 26 25 25 27 28 31 33 35 36 37 37 36 33 33 34 36 38 40 42 45 48 49 49 48 46 46 45 43 43 43 40 39 39 34 27 22 26 32 33 31 30 29 29 26 17 12 11 11 12 14 20 28 31 32 32 32 35 39 40 42 45 43 45 58 69
6 7 10 11 13 15 16 20 25 25 24 25 27 28 30 32 33 35 37 36 34 33 34 36 38 40 43 45 47 50 52 51 50 47 45 43 41 41 41 38 35 34 34 29 24 27 32 32 29 26 23 24 23 15 10 10 11 10 11 16 24 28 28 30 30 31 36 38 40 43 43 44 53 65
8 9 11 13 14 15 17 21 25 25 24 25 26 28 30 31 32 34 35 34 33 33 34 37 39 41 44 47 49 52 53 52 51 49 46 42 41 40 38 36 32 31 30 24 18 21 27 28 27 25 21 22 23 18 11 10 10 8 9 14 21 25 27 29 29 30 32 35 36 37 38 40 49 61
9 11 12 13 14 15 18 21 24 25 24 24 26 28 29 31 33 34 34 33 33 34 35 37 40 43 46 49 50 52 54 53 52 51 47 44 42 39 33 29 27 26 24 18 12 16 23 25 25 24 22 21 22 19 14 10 6 3 6 12 18 23 26 26 27 28 29 31 31 31 32 34 43 57
11 11 13 13 14 16 18 22 24 25 24 24 26 28 29 31 34 35 34 34 34 33 35 38 41 44 47 49 50 52 54 54 53 52 49 46 44 41 33 27 23 20 19 16 11 12 17 22 24 23 22 21 21 20 16 10 3 2 3 8 13 18 20 19 20 22 23 25 26 26 27 30 38 51
10 11 13 13 14 16 18 21 24 24 23 24 26 28 29 31 34 35 35 34 33 33 35 38 41 45 48 49 50 52 53 53 53 52 50 47 46 43 38 33 27 22 18 15 12 10 12 19 24 24 23 21 20 19 16 11 5 1 1 1 4 9 11 13 15 16 17 18 19 21 25 30 39 51
9 10 12 13 14 15 18 21 23 23 23 24 25 27 30 32 34 36 35 33 33 32 35 38 41 44 47 49 50 51 52 53 54 54 53 50 48 46 43 38 34 27 20 14 11 10 8 13 22 23 23 23 21 18 15 12 7 3 3 5 4 1 4 6 11 13 14 16 17 19 22 27 39 53
8 9 11 12 15 16 18 21 23 23 22 22 24 26 29 31 34 36 35 34 32 32 34 38 40 43 46 49 50 51 53 54 55 55 54 53 52 51 48 44 40 32 20 12 12 16 19 11 9 12 14 18 19 16 15 13 9 7 5 3 2 1 1 3 7 10 13 15 15 17 19 23 34 50
9 9 11 13 16 17 18 21 23 22 20 21 23 25 28 30 33 35 35 33 29 29 32 36 39 41 45 48 51 52 54 55 55 55 55 53 53 52 51 49 48 41 27 14 10 16 27 27 16 5 6 7 8 9 11 11 10 8 3 3 4 2 1 1 5 8 12 13 13 15 19 25 33 45
11 11 11 13 17 19 21 23 25 23 21 21 23 24 26 28 31 33 35 33 28 27 31 34 37 40 44 47 51 53 54 55 55 55 56 54 53 53 52 51 51 48 40 27 17 16 25 31 29 21 13 10 7 5 3 3 3 3 3 3 4 3 2 1 2 4 8 11 12 14 18 24 30 39
13 13 13 14 18 21 23 26 27 26 24 22 23 24 25 27 29 32 35 35 31 28 30 34 37 40 43 46 49 52 54 55 55 55 56 55 54 53 53 52 51 50 48 41 32 25 23 26 30 30 24 18 14 12 10 10 9 8 8 6 4 3 2 1 0 1 3 7 11 14 16 21 26 32
13 15 16 16 19 22 24 26 28 28 27 24 24 25 26 27 29 31 34 35 32 29 29 32 35 38 41 44 46 49 52 55 56 56 56 55 54 53 52 52 51 50 49 47 43 36 28 23 24 27 28 26 23 20 19 18 17 14 11 9 7 6 4 2 1 1 1 3 7 11 16 20 24 30
11 15 16 17 19 22 24 26 28 29 28 25 24 25 26 26 28 30 32 34 34 31 28 30 33 36 39 42 44 47 50 53 55 57 56 56 56 54 52 51 51 50 47 46 45 43 38 32 26 24 24 25 25 26 26 24 20 17 15 13 11 10 8 6 4 1 1 3 6 10 15 20 25 29
10 13 15 16 18 22 24 25 27 28 28 25 23 24 26 27 28 30 31 32 33 31 28 28 31 34 37 39 42 45 47 50 53 56 57 57 57 56 54 51 50 49 47 45 43 43 43 42 37 34 32 30 30 32 32 26 20 19 18 16 14 13 11 8 5 2 3 6 9 12 16 21 26 30
11 12 14 15 18 21 24 25 27 28 28 25 23 23 25 27 28 29 29 30 31 31 29 26 27 31 34 37 40 43 45 47 51 53 55 56 55 55 55 53 51 49 47 45 43 42 43 44 43 42 42 40 40 40 35 25 19 20 18 15 13 11 9 7 5 2 5 8 11 15 18 22 26 30
12 12 13 14 16 21 23 25 26 27 27 26 23 21 23 25 27 28 28 29 30 31 29 26 25 27 31 34 38 41 43 45 48 50 52 53 53 54 54 53 51 49 46 45 44 43 42 42 42 42 42 43 43 41 37 31 28 25 19 13 10 8 5 4 1 3 7 9 12 16 19 22 25 29
11 12 13 14 16 20 23 25 26 26 26 26 23 21 21 24 26 28 29 29 29 30 30 28 25 25 27 31 34 37 39 42 44 46 48 50 51 51 51 51 51 49 47 45 45 45 44 43 42 39 38 39 39 38 38 38 35 27 18 13 11 8 5 4 6 7 9 11 14 17 18 20 22 24
11 12 13 14 16 19 23 24 25 25 25 24 24 22 21 22 25 27 29 29 28 28 29 28 25 23 24 27 31 34 36 39 41 42 44 46 47 48 49 49 50 50 49 47 45 44 44 44 42 38 36 35 34 33 34 35 33 29 24 21 16 12 10 10 10 12 15 16 16 17 19 21 23 24
11 12 14 15 16 19 22 24 23 23 23 23 23 22 21 20 22 25 27 28 28 27 27 28 26 24 23 24 27 30 33 35 38 39 40 42 44 45 46 47 48 48 48 47 45 43 40 37 35 34 34 32 31 32 35 36 37 36 33 29 24 19 16 16 14 16 21 20 17 19 24 27 29 32
12 13 14 16 17 19 22 23 23 22 22 22 23 23 21 20 20 22 24 27 27 26 26 26 26 25 22 21 23 26 29 32 34 35 37 38 41 43 44 44 45 45 45 44 43 41 38 34 31 31 32 32 33 36 40 40 38 37 34 32 29 25 22 20 19 20 22 22 21 25 31 34 36 38
13 14 15 17 18 19 21 23 23 22 22 22 23 23 22 20 20 21 22 25 26 26 25 25 25 25 23 21 20 22 25 28 31 32 33 34 36 39 41 42 42 42 42 42 41 40 39 39 36 34 35 35 36 37 39 38 36 35 34 32 30 27 25 23 22 21 22 23 26 29 32 35 37 39
13 15 16 17 18 20 21 23 22 20 20 22 23 23 22 21 21 21 22 23 25 25 25 24 24 24 23 22 20 20 21 24 27 28 30 31 32 34 36 38 40 40 40 40 40 40 40 39 39 38 38 38 37 37 37 37 37 36 35 32 30 30 28 25 23 24 25 24 23 25 27 30 33 36
14 15 17 18 19 20 21 21 19 17 17 20 22 23 23 22 22 22 22 22 22 24 24 23 23 23 23 22 21 19 19 20 22 24 27 29 29 30 32 34 36 38 38 38 38 38 38 38 39 39 38 38 37 37 37 36 36 36 35 34 34 34 34 32 31 34 36 34 31 29 30 31 32 33
Wind_Direction
16 24 31 33 33 31 27 19 14 11 9 8 5 3 4 2 357 352 348 348 348 347 348 346 344 346 347 345 345 344 341 338 333 329 326 323 321 319 317 313 308 305 301 290 273 264 259 252 249 251 254 249 243 241 237 239 242 238 236 233 226 219 218 219 220 218 219 220 216 215 218 222 226 225
18 24 29 33 36 33 22 15 13 11 9 8 7 5 4 2 1 357 346 343 347 346 346 348 345 345 346 346 344 343 342 340 336 332 328 326 323 321 319 316 311 307 303 296 285 274 265 258 252 251 254 250 244 242 241 242 247 244 239 233 227 222 216 216 219 219 219 221 219 216 218 222 227 227
25 27 32 34 35 30 20 16 15 13 11 9 7 6 6 2 0 1 354 341 345 348 345 347 349 346 345 345 343 340 339 338 336 333 330 328 327 323 320 318 314 310 307 302 297 288 275 264 257 252 252 251 247 243 240 242 246 247 245 236 228 223 218 215 217 220 221 222 222 221 220 221 225 226
23 28 37 39 34 26 18 17 16 13 11 10 9 7 7 4 360 2 2 346 343 350 349 347 349 349 346 345 344 340 338 338 337 336 334 332 330 326 322 321 319 315 312 308 304 297 285 272 263 257 253 251 250 247 242 243 243 242 244 239 229 223 221 218 217 218 220 221 223 223 221 220 222 223
23 35 46 43 33 25 18 16 15 13 13 10 10 8 5 4 3 2 3 353 345 348 351 350 350 350 348 346 346 344 341 340 339 338 337 335 332 329 326 323 321 319 316 312 308 302 295 285 273 265 259 255 253 251 247 244 242 239 237 237 233 228 225 222 217 217 218 220 222 223 222 221 220 221
30 43 49 38 29 23 18 16 12 10 11 9 8 7 2 0 2 2 1 356 347 344 348 351 350 350 349 346 346 346 342 340 338 336 334 334 332 331 329 326 323 322 319 315 312 307 300 296 287 274 264 258 254 252 250 246 242 240 236 232 233 235 233 228 220 216 217 219 221 223 222 222 220 219
34 43 42 30 24 19 15 13 10 8 8 8 7 5 1 357 358 1 1 356 348 342 343 347 348 348 347 344 343 343 340 338 337 334 332 332 331 330 329 328 325 323 322 318 314 310 304 299 294 282 269 261 255 251 249 246 243 241 237 232 231 234 235 232 224 217 215 217 220 222 222 221 220 218
32 39 34 25 21 16 11 9 7 6 6 6 7 7 5 1 357 358 359 356 351 344 341 344 346 345 344 342 341 340 337 336 335 334 332 330 329 328 327 326 325 324 323 320 316 313 308 301 295 286 274 263 256 251 247 245 245 243 237 231 230 230 232 234 229 220 215 215 218 220 221 221 219 217
25 31 25 20 17 12 7 6 5 5 5 5 8 9 8 5 1 358 356 354 352 346 342 342 344 345 342 339 339 339 336 333 333 333 332 329 326 325 325 324 324 324 323 321 318 314 309 303 296 289 280 267 258 252 247 243 244 245 239 231 228 227 229 234 234 226 216 214 217 218 219 220 220 216
17 22 18 16 14 8 4 3 3 4 5 5 7 8 8 6 2 358 354 352 350 348 345 342 342 343 341 338 337 338 335 332 331 331 330 327 324 323 323 322 322 322 321 320 319 315 310 304 297 292 285 275 263 254 247 243 243 244 241 233 228 227 227 231 234 229 219 214 216 217 217 219 220 216
10 16 16 14 10 5 1 1 3 4 4 4 6 8 7 4 0 357 354 352 350 347 345 342 341 339 338 336 334 335 334 331 329 329 327 326 325 323 321 319 318 319 318 318 318 316 312 306 300 296 292 284 271 257 246 242 242 243 241 234 230 229 228 228 231 230 222 215 214 216 216 218 220 218
6 10 12 10 6 2 360 360 2 3 2 4 7 8 5 1 358 357 354 352 350 348 344 342 340 337 335 335 333 333 334 331 329 328 326 324 324 323 320 317 316 317 317 317 317 316 313 308 303 300 296 290 278 262 248 240 239 240 239 235 231 229 228 226 228 229 225 218 213 215 216 216 219 218
4 4 4 3 2 359 357 357 0 3 6 9 7 4 1 358 355 354 354 353 350 347 344 341 339 336 333 333 333 332 332 330 327 327 325 321 321 322 319 315 315 316 315 315 314 313 312 310 305 301 298 293 283 267 253 242 238 237 237 234 232 230 227 225 225 227 227 221 214 213 216 217 218 218
357 357 356 357 356 352 352 356 0 4 9 10 5 0 358 356 353 352 352 352 350 346 343 340 339 335 332 332 333 330 329 329 326 325 324 321 320 321 317 314 315 315 314 312 310 309 309 308 305 303 301 296 288 272 255 243 237 236 235 233 230 229 229 226 222 221 225 223 215 212 215 217 217 219
343 348 349 347 346 347 353 1 6 8 9 7 2 359 358 355 353 353 351 350 349 345 340 338 337 334 331 332 332 329 329 329 326 324 323 320 319 318 314 312 312 311 312 310 307 306 305 304 303 303 302 299 292 277 258 244 237 235 234 232 228 227 229 228 221 216 220 223 217 212 213 215 216 217
336 344 343 339 341 351 3 9 8 6 4 2 359 356 355 353 352 352 351 348 345 342 338 336 335 333 331 331 331 331 330 328 326 324 322 320 317 314 310 308 306 307 310 308 302 301 302 302 301 301 300 299 293 279 259 244 236 233 232 231 228 225 226 228 224 218 218 222 220 214 212 214 214 214
345 335 333 337 349 3 11 10 5 1 357 357 355 353 352 351 349 348 347 344 341 338 337 334 332 333 332 330 331 332 332 329 327 325 322 320 317 313 310 307 304 305 308 306 300 298 298 300 301 300 299 299 293 280 260 243 234 231 230 230 228 224 223 226 226 224 222 221 220 217 214 214 214 213
321 321 333 349 6 14 11 7 3 358 354 352 349 347 347 346 346 347 345 341 338 336 336 334 331 333 335 334 333 335 335 331 327 324 322 321 319 314 311 310 306 305 306 305 302 297 296 299 299 298 299 299 294 282 262 244 233 228 226 227 228 225 223 224 225 226 226 224 221 218 216 216 215 212
318 332 355 17 22 17 12 8 4 357 352 349 345 343 343 343 346 348 345 341 338 337 338 336 333 335 340 341 340 341 340 334 329 326 324 324 321 316 314 312 308 305 304 304 299 293 293 296 296 296 300 300 295 286 267 248 234 227 224 223 225 225 224 224 224 225 228 228 225 220 217 217 216 213
328 348 22 34 24 15 10 7 4 357 351 348 347 345 345 345 346 347 344 342 341 340 339 337 337 340 345 346 346 346 344 338 334 332 328 327 325 318 314 314 310 306 304 302 298 291 291 294 294 295 300 301 296 288 271 252 238 228 222 221 223 225 225 226 226 226 227 230 229 223 218 218 217 214
341 17 37 30 17 10 5 4 3 357 350 348 349 349 348 347 346 345 344 344 344 343 340 338 340 344 348 350 350 349 347 344 341 335 330 330 328 319 316 316 313 307 304 302 298 290 290 295 296 296 301 303 298 288 269 249 235 226 221 219 222 225 226 228 227 226 226 228 230 229 222 218 218 216
27 49 41 29 16 6 1 1 0 356 351 350 352 352 349 347 345 343 343 345 345 344 342 343 345 349 352 354 353 351 349 348 346 340 334 332 329 322 320 320 315 309 306 305 303 293 290 295 296 295 299 302 296 283 263 241 218 211 213 214 218 223 226 228 229 226 225 225 226 229 227 220 217 214
82 60 42 32 19 7 0 358 357 355 355 355 354 352 348 346 344 342 343 346 346 343 344 347 350 353 357 356 354 353 352 351 349 345 340 337 332 327 326 324 318 312 307 304 300 292 288 290 290 289 292 296 294 280 257 244 216 198 205 211 214 219 223 227 230 227 224 223 223 226 226 222 219 214
70 51 39 30 20 9 3 359 356 356 358 357 353 350 348 346 342 341 344 348 347 344 345 349 352 357 359 358 356 356 354 352 351 349 347 344 339 334 330 327 321 311 303 301 298 290 286 286 287 286 284 286 287 277 248 240 224 207 211 211 210 214 220 226 229 225 222 222 221 223 223 219 219 215
50 38 32 26 18 10 3 359 357 357 357 356 353 350 348 345 342 344 348 351 349 348 348 351 355 360 1 358 357 357 355 353 352 353 352 350 349 344 337 332 326 315 307 307 298 284 282 281 281 283 281 276 276 275 258 238 225 219 219 208 205 212 219 224 226 223 221 220 218 219 221 218 219 216
42 32 26 20 14 8 2 359 358 356 355 354 353 351 348 346 346 350 353 353 353 353 352 354 359 2 2 359 357 357 357 356 356 356 355 355 357 355 349 344 338 327 321 321 299 275 278 280 277 278 280 275 274 279 273 246 210 180 202 201 202 211 216 219 222 221 221 220 216 215 218 220 221 219
36 28 22 15 8 3 360 358 357 355 353 353 353 351 350 350 351 355 357 357 358 357 356 358 1 3 3 0 357 357 359 360 359 359 358 359 2 3 2 4 360 348 340 336 315 284 277 274 270 268 270 272 274 278 275 260 229 119 162 183 192 200 203 207 213 217 220 221 218 215 215 220 224 220
27 20 15 11 5 0 356 356 356 354 352 352 352 352 352 354 356 358 360 2 2 0 0 2 3 5 6 4 360 359 1 2 1 1 1 3 6 8 10 13 15 10 2 349 330 312 283 266 262 261 259 260 264 267 270 272 280 312 77 122 183 186 186 195 205 210 216 220 221 220 216 218 221 216
19 12 10 6 2 357 353 355 356 354 351 352 352 352 354 356 359 1 3 5 4 3 4 4 4 6 8 8 6 5 6 6 4 4 5 7 10 14 16 19 23 24 17 0 350 359 336 272 259 256 253 252 254 261 272 280 288 311 337 327 313 196 168 199 208 208 213 218 222 225 223 222 218 210
15 12 10 4 1 358 354 353 355 354 352 351 352 353 354 358 1 3 5 7 6 5 6 7 6 7 9 11 13 12 12 11 8 7 7 9 11 15 17 18 24 31 29 8 2 28 35 13 288 253 240 242 246 254 269 283 298 318 319 296 280 99 120 219 221 217 218 220 224 229 228 226 219 209
16 13 12 4 359 358 355 353 355 356 354 353 353 354 355 359 2 5 7 9 9 8 8 9 9 10 12 14 15 16 15 14 12 11 10 11 12 14 16 17 21 29 36 31 10 32 48 49 43 65 153 195 227 245 262 276 294 313 327 145 146 128 106 219 225 222 222 224 229 231 227 222 217 209
16 9 6 1 358 357 357 356 356 358 357 356 356 356 356 358 3 5 6 10 12 11 12 12 11 12 14 16 16 17 17 16 15 15 14 14 15 16 17 18 20 24 31 38 38 43 55 60 60 68 95 122 131 143 181 239 284 337 31 102 137 142 144 196 223 219 223 227 231 233 228 221 215 209
11 6 3 359 357 357 358 357 356 356 357 356 357 359 358 359 3 5 6 8 10 11 13 15 14 13 15 16 16 17 18 18 18 18 17 17 17 18 19 21 21 23 26 32 40 48 56 62 63 65 74 87 103 114 108 88 78 72 64 62 68 79 90 133 186 174 226 232 232 234 233 226 219 214
4 3 2 358 354 355 357 355 354 354 355 355 356 359 1 2 4 5 6 8 9 8 11 16 16 14 15 16 15 16 17 18 19 19 19 19 20 20 21 21 23 25 27 31 37 45 53 62 66 67 69 72 80 86 81 70 64 62 59 57 53 53 50 35 42 93 164 236 240 239 235 229 225 220
357 358 359 355 351 352 353 353 353 353 353 354 356 358 1 4 6 5 6 7 8 6 8 14 17 17 16 16 15 15 17 18 19 20 21 22 22 22 23 23 24 26 29 32 36 41 47 55 62 67 68 70 73 73 66 58 52 49 48 50 49 44 37 25 16 40 182 229 244 242 234 225 221 220
351 354 353 351 349 349 349 350 352 352 351 354 357 359 0 3 6 6 5 7 8 7 6 10 15 16 16 16 16 15 16 17 19 20 21 23 24 24 25 26 27 29 31 33 35 39 45 49 52 56 58 61 62 58 51 46 46 46 44 42 40 36 30 17 2 340 218 223 228 229 226 220 214 213
342 347 348 346 345 345 345 347 350 350 350 351 356 1 2 3 4 5 5 5 8 9 8 9 13 15 16 16 17 16 16 17 18 19 21 23 24 25 26 27 29 30 32 34 37 41 45 47 49 51 53 55 55 51 47 46 50 49 43 37 37 37 27 6 342 272 212 214 216 214 215 212 207 206
331 338 341 340 339 341 342 344 347 348 348 349 353 0 4 4 3 3 3 5 8 10 9 9 11 14 16 17 17 17 17 17 17 18 20 22 24 26 27 28 30 32 34 36 40 43 46 49 51 52 54 55 55 52 49 48 47 45 40 36 42 48 32 2 326 204 200 203 204 202 203 205 203 202
320 329 334 334 334 336 339 342 345 346 346 347 350 356 2 4 4 3 3 4 7 9 9 9 10 12 14 16 17 17 18 17 18 18 18 20 24 27 28 29 31 32 34 36 40 44 47 50 53 55 58 61 61 59 57 55 53 51 48 48 54 59 66 91 125 150 165 178 186 184 183 186 188 190
315 324 328 327 329 333 336 341 344 345 344 344 347 351 357 0 2 3 3 2 4 6 8 9 10 10 12 15 16 18 19 19 19 19 19 19 22 26 29 30 31 33 34 36 39 42 47 51 54 56 59 64 68 69 68 64 61 60 59 60 65 74 86 101 120 130 132 145 166 168 160 158 158 161
316 319 322 324 325 328 333 339 343 343 342 342 344 348 353 355 358 1 2 1 2 4 6 8 9 10 11 13 15 17 18 19 20 21 21 21 22 25 29 32 32 33 35 37 39 42 46 51 56 59 61 63 66 68 67 64 61 60 60 62 68 79 92 103 115 122 124 134 152 153 145 146 148 149
313 315 318 322 323 324 328 335 340 341 339 340 343 347 351 352 354 358 0 0 1 3 4 6 8 9 9 11 14 16 17 18 19 20 22 22 22 24 28 31 34 35 37 39 40 42 45 48 52 57 60 61 61 63 64 63 62 62 62 64 68 75 85 96 108 118 124 132 141 140 138 142 144 142
306 309 313 319 322 321 324 330 336 338 338 339 342 347 352 353 352 355 358 359 0 2 3 4 6 8 9 10 12 14 16 17 18 20 22 23 23 23 26 30 33 36 38 40 41 41 43 45 47 51 57 61 63 65 67 68 66 65 65 65 67 71 76 85 98 109 115 123 132 136 140 145 145 141
298 303 308 315 320 321 323 329 333 337 340 343 345 349 354 356 354 354 355 357 358 0 2 3 4 6 8 9 10 12 14 17 19 20 21 23 23 22 24 28 32 35 37 39 41 41 42 44 46 49 54 60 64 67 70 70 70 69 69 67 68 71 73 78 85 89 90 95 110 122 130 135 137 136
291 297 304 312 318 321 326 330 333 336 342 347 350 352 356 359 358 355 353 353 355 358 0 2 3 4 5 7 9 11 12 14 17 19 20 22 23 23 22 25 30 34 36 37 39 42 44 45 47 50 54 58 62 65 68 70 70 70 70 70 70 72 74 78 82 85 85 86 91 98 102 107 113 118